This demonstration page uses our WeatherBlox Daily Observations layout. Learn more.

Hourly Observations for December 31, 2016

Temp ( °F °C ) Dew Point ( °F °C ) Humidity (%) Winds ( mph kmh ) Pressure ( in mb ) Visibility ( mi km ) Precip ( " mm )
12:15 am 00:15 Clear 32 -0.1 21 -6 65 65 N 9 15 29.83 1010 10 16.0934 0 0
12:35 am 00:35 Clear 31 -0.5 21 -6.1 66 66 N 10 17 29.85 1011 10 16.0934 0 0
12:55 am 00:55 Clear 31 -0.8 20 -6.6 65 65 N 9 15 29.85 1011 10 16.0934 0 0
1:15 am 01:15 Clear 30 -1.1 20 -6.8 66 66 N 8 13 29.85 1011 10 16.0934 0 0
1:35 am 01:35 Clear 30 -1.2 19 -7 65 65 N 12 19 29.85 1011 10 16.0934 0 0
1:55 am 01:55 Clear 29 -1.5 19 -7 67 67 N 8 13 29.85 1011 10 16.0934 0 0
2:15 am 02:15 Clear 29 -1.5 20 -6.7 68 68 N 9 15 29.85 1011 10 16.0934 0 0
2:35 am 02:35 Clear 29 -1.5 20 -6.6 69 69 N 9 15 29.88 1012 10 16.0934 0 0
2:55 am 02:55 Clear 29 -1.7 20 -6.5 70 70 N 8 13 29.88 1012 10 16.0934 0 0
3:15 am 03:15 Clear 29 -1.5 21 -6.2 71 71 N 10 17 29.88 1012 10 16.0934 0 0
3:35 am 03:35 Clear 29 -1.5 21 -6.1 71 71 NNW 8 13 29.88 1012 10 16.0934 0 0
3:55 am 03:55 Clear 29 -1.4 21 -6 71 71 NNW 10 17 29.88 1012 10 16.0934 0 0
4:15 am 04:15 Clear 30 -1 21 -6 69 69 N 17 28 29.88 1012 10 16.0934 0 0
4:35 am 04:35 Clear 30 -0.9 21 -6 69 69 NNW 14 22 29.88 1012 10 16.0934 0 0
4:55 am 04:55 Clear 30 -0.9 21 -6 69 69 NNW 12 19 29.88 1012 10 16.0934 0 0
5:15 am 05:15 Clear 30 -1.2 21 -6.1 70 70 NNW 10 17 29.88 1012 10 16.0934 0 0
5:35 am 05:35 Clear 28 -2.1 20 -6.4 73 73 NNW 7 11 29.88 1012 10 16.0934 0 0
5:55 am 05:55 Clear 28 -2.5 20 -6.4 75 75 NNW 8 13 29.91 1013 10 16.0934 0 0
6:15 am 06:15 Clear 27 -2.8 20 -6.5 76 76 NNW 6 9 29.91 1013 10 16.0934 0 0
6:35 am 06:35 Clear 26 -3.3 20 -6.7 78 78 NW 5 7 29.94 1014 10 16.0934 0 0
6:55 am 06:55 Clear 25 -3.7 20 -6.7 80 80 NW 6 9 29.94 1014 10 16.0934 0 0
7:15 am 07:15 Clear 26 -3.6 20 -6.5 81 81 NNW 3 6 29.94 1014 10 16.0934 0 0
7:35 am 07:35 Clear 27 -3 21 -6.3 78 78 NNW 8 13 29.94 1014 10 16.0934 0 0
7:55 am 07:55 Clear 28 -2 21 -6 74 74 NW 8 13 29.91 1013 10 16.0934 0 0
8:15 am 08:15 Sunny 28 -2 21 -5.9 75 75 NNW 9 15 29.97 1015 10 16.0934 0 0
8:35 am 08:35 Sunny 28 -2 21 -6.2 73 73 NNW 10 17 30 1016 10 16.0934 0 0
8:55 am 08:55 Sunny 29 -1.5 21 -6.1 71 71 NNW 8 13 29.97 1015 10 16.0934 0 0
9:15 am 09:15 Sunny 30 -1.2 20 -6.5 68 68 N 13 20 29.97 1015 10 16.0934 0 0
9:35 am 09:35 Sunny 30 -1 20 -6.7 66 66 N 10 17 30 1016 10 16.0934 0 0
9:55 am 09:55 Sunny 31 -0.7 20 -6.6 65 65 NNW 7 11 30 1016 10 16.0934 0 0
10:15 am 10:15 Sunny 31 -0.4 17 -8.3 56 56 NNW 8 13 30 1016 10 16.0934 0 0
10:35 am 10:35 Sunny 32 0.1 17 -8.1 54 54 NNW 7 11 30 1016 10 16.0934 0 0
10:55 am 10:55 Sunny 33 0.7 17 -8.1 52 52 NW 9 15 30 1016 10 16.0934 0 0
11:15 am 11:15 Sunny 34 1.2 16 -8.8 48 48 NNW 9 15 30 1016 10 16.0934 0 0
11:35 am 11:35 Sunny 35 1.5 15 -9.6 44 44 NNW 9 15 30 1016 10 16.0934 0 0
11:55 am 11:55 Sunny 36 2.1 14 -9.9 41 41 N 6 9 29.97 1015 10 16.0934 0 0
12:15 pm 12:15 Sunny 36 2.4 13 -10.3 39 39 N 6 9 29.97 1015 10 16.0934 0 0
12:35 pm 12:35 Sunny 37 3 12 -10.9 36 36 N 9 15 29.94 1014 10 16.0934 0 0
12:55 pm 12:55 Sunny 38 3.2 13 -10.5 36 36 NW 5 7 29.94 1014 10 16.0934 0 0
1:15 pm 13:15 Sunny 38 3.1 13 -10.6 36 36 Calm 29.94 1014 10 16.0934 0 0
1:35 pm 13:35 Sunny 39 3.7 14 -10.2 36 36 WNW 6 9 29.91 1013 10 16.0934 0 0
1:55 pm 13:55 Sunny 39 3.7 14 -10.2 36 36 Calm 29.91 1013 10 16.0934 0 0
2:15 pm 14:15 Sunny 39 3.9 14 -10.1 36 36 WNW 5 7 29.91 1013 10 16.0934 0 0
2:35 pm 14:35 Sunny 39 4 14 -10.1 35 35 Calm 29.91 1013 10 16.0934 0 0
2:55 pm 14:55 Sunny 40 4.2 13 -10.3 34 34 NW 3 6 29.91 1013 10 16.0934 0 0
3:15 pm 15:15 Sunny 39 4.1 14 -10.2 35 35 WNW 3 6 29.91 1013 10 16.0934 0 0
3:35 pm 15:35 Sunny 40 4.2 14 -10 35 35 Calm 29.91 1013 10 16.0934 0 0
3:55 pm 15:55 Sunny 40 4.2 15 -9.7 36 36 W 3 6 29.91 1013 10 16.0934 0 0
4:15 pm 16:15 Sunny 39 4 15 -9.6 37 37 Calm 29.91 1013 10 16.0934 0 0
4:35 pm 16:35 Sunny 39 3.8 15 -9.2 38 38 S 5 7 29.91 1013 10 16.0934 0 0
4:55 pm 16:55 Sunny 37 3 16 -9 41 41 S 5 7 29.88 1012 10 16.0934 0 0
5:15 pm 17:15 Sunny 35 1.7 16 -9 45 45 S 5 7 29.88 1012 10 16.0934 0 0
5:35 pm 17:35 Clear 32 0.2 16 -9 50 50 S 5 7 29.91 1013 10 16.0934 0 0
8:55 pm 20:55 Clear 29 -1.8 15 -9.2 57 57 S 12 19 29.94 1014 10 16.0934 0 0
9:15 pm 21:15 Clear 29 -1.6 15 -9.5 55 55 S 12 19 29.94 1014 10 16.0934 0 0
9:35 pm 21:35 Clear 29 -1.4 15 -9.5 54 54 S 13 20 29.94 1014 10 16.0934 0 0
9:55 pm 21:55 Clear 28 -2 15 -9.4 57 57 S 12 19 30 1016 10 16.0934 0 0
10:15 pm 22:15 Clear 28 -2.2 15 -9.2 59 59 S 12 19 30 1016 10 16.0934 0 0
10:35 pm 22:35 Clear 28 -2.1 15 -9.3 58 58 S 10 17 30 1016 10 16.0934 0 0
10:55 pm 22:55 Clear 28 -2.2 15 -9.5 58 58 SSW 10 17 30 1016 10 16.0934 0 0
11:15 pm 23:15 Clear 27 -2.6 15 -9.5 59 59 SSW 8 13 30 1016 10 16.0934 0 0
11:35 pm 23:35 Clear 26 -3.3 15 -9.5 63 63 SSW 3 6 30 1016 10 16.0934 0 0
11:55 pm 23:55 Clear 25 -4 15 -9.4 66 66 SSW 6 9 30 1016 10 16.0934 0 0

Powered by AerisWeather